Location: Bear Valley Community Church - Hurst
(32.8460°N, 97.1828°W)
Time: 08:24:10
(UTC+00:00)

Cosmos 1515 Rocket - Pass Details

Date: 07 July 2022
Orbit: 604 x 630 km, 82.5° (Epoch: 17 August)

Event Time Altitude Azimuth Distance (km) Brightness Sun altitude
Rises 08:03:52 0° 10° (N) 2,884 8.1 -30.6°
Reaches altitude 10° 08:06:33 10° 26° (NNE) 1,970 7.0 -30.3°
Maximum altitude 08:09:54 22° 77° (ENE) 1,357 5.6 -30.0°
Enters shadow 08:10:11 21° 83° (E) 1,361 5.6 -30.0°
